Year,Month,Day,Hour,Minute,Value (Times are PST for temperature in C)
2011,12,05,00,00,1.30
2011,12,05,00,01,1.30
2011,12,05,00,02,1.30
2011,12,05,00,03,1.30
2011,12,05,00,04,1.30
2011,12,05,00,05,1.30
2011,12,05,00,06,1.30
2011,12,05,00,07,1.30
2011,12,05,00,08,1.30
2011,12,05,00,09,1.30
2011,12,05,00,10,1.30
2011,12,05,00,11,1.30
2011,12,05,00,12,1.30
2011,12,05,00,13,1.30
2011,12,05,00,14,1.30
2011,12,05,00,15,1.30
2011,12,05,00,16,1.20
2011,12,05,00,17,1.20
2011,12,05,00,18,1.20
2011,12,05,00,19,1.20
2011,12,05,00,20,1.20
2011,12,05,00,21,1.20
2011,12,05,00,22,1.20
2011,12,05,00,23,1.20
2011,12,05,00,24,1.20
2011,12,05,00,25,1.20
2011,12,05,00,26,1.20
2011,12,05,00,27,1.10
2011,12,05,00,28,1.10
2011,12,05,00,29,1.10
2011,12,05,00,30,1.10
2011,12,05,00,31,1.10
2011,12,05,00,32,1.10
2011,12,05,00,33,1.10
2011,12,05,00,34,1.10
2011,12,05,00,35,1.10
2011,12,05,00,36,1.10
2011,12,05,00,37,1.10
2011,12,05,00,38,1.10
2011,12,05,00,39,1.10
2011,12,05,00,40,1.10
2011,12,05,00,41,1.10
2011,12,05,00,42,1.10
2011,12,05,00,43,1.00
2011,12,05,00,44,1.00
2011,12,05,00,45,1.00
2011,12,05,00,46,1.00
2011,12,05,00,47,1.00
2011,12,05,00,48,0.90
2011,12,05,00,49,0.90
2011,12,05,00,50,0.90
2011,12,05,00,51,1.00
2011,12,05,00,52,1.00
2011,12,05,00,53,1.00
2011,12,05,00,54,1.10
2011,12,05,00,55,1.10
2011,12,05,00,56,1.10
2011,12,05,00,57,1.10
2011,12,05,00,58,1.20
2011,12,05,00,59,1.20
2011,12,05,01,00,1.30
2011,12,05,01,01,1.30
2011,12,05,01,02,1.30
2011,12,05,01,03,1.30
2011,12,05,01,04,1.30
2011,12,05,01,05,1.30
2011,12,05,01,06,1.40
2011,12,05,01,07,1.50
2011,12,05,01,08,1.50
2011,12,05,01,09,1.60
2011,12,05,01,10,1.60
2011,12,05,01,11,1.70
2011,12,05,01,12,1.70
2011,12,05,01,13,1.70
2011,12,05,01,14,1.70
2011,12,05,01,15,1.70
2011,12,05,01,16,1.70
2011,12,05,01,17,1.70
2011,12,05,01,18,1.70
2011,12,05,01,19,1.70
2011,12,05,01,20,1.70
2011,12,05,01,21,1.70
2011,12,05,01,22,1.70
2011,12,05,01,23,1.70
2011,12,05,01,24,1.70
2011,12,05,01,25,1.70
2011,12,05,01,26,1.70
2011,12,05,01,27,1.80
2011,12,05,01,28,1.80
2011,12,05,01,29,1.90
2011,12,05,01,30,2.00
2011,12,05,01,31,2.10
2011,12,05,01,32,2.20
2011,12,05,01,33,2.20
2011,12,05,01,34,2.30
2011,12,05,01,35,2.30
2011,12,05,01,36,2.30
2011,12,05,01,37,2.40
2011,12,05,01,38,2.40
2011,12,05,01,39,2.50
2011,12,05,01,40,2.60
2011,12,05,01,41,2.60
2011,12,05,01,42,2.70
2011,12,05,01,43,2.70
2011,12,05,01,44,2.80
2011,12,05,01,45,2.80
2011,12,05,01,46,2.80
2011,12,05,01,47,2.90
2011,12,05,01,48,2.90
2011,12,05,01,49,2.90
2011,12,05,01,50,2.90
2011,12,05,01,51,2.90
2011,12,05,01,52,2.90
2011,12,05,01,53,2.90
2011,12,05,01,54,2.90
2011,12,05,01,55,2.90
2011,12,05,01,56,2.90
2011,12,05,01,57,2.90
2011,12,05,01,58,2.90
2011,12,05,01,59,3.00
2011,12,05,02,00,3.00
2011,12,05,02,01,3.10
2011,12,05,02,02,3.10
2011,12,05,02,03,3.10
2011,12,05,02,04,3.10
2011,12,05,02,05,3.10
2011,12,05,02,06,3.20
2011,12,05,02,07,3.20
2011,12,05,02,08,3.20
2011,12,05,02,09,3.30
2011,12,05,02,10,3.30
2011,12,05,02,11,3.30
2011,12,05,02,12,3.30
2011,12,05,02,13,3.30
2011,12,05,02,14,3.30
2011,12,05,02,15,3.40
2011,12,05,02,16,3.40
2011,12,05,02,17,3.30
2011,12,05,02,18,3.30
2011,12,05,02,19,3.30
2011,12,05,02,20,3.30
2011,12,05,02,21,3.30
2011,12,05,02,22,3.20
2011,12,05,02,23,3.20
2011,12,05,02,24,3.10
2011,12,05,02,25,3.10
2011,12,05,02,26,3.10
2011,12,05,02,27,3.10
2011,12,05,02,28,3.20
2011,12,05,02,29,3.20
2011,12,05,02,30,3.20
2011,12,05,02,31,3.20
2011,12,05,02,32,3.10
2011,12,05,02,33,3.10
2011,12,05,02,34,3.10
2011,12,05,02,35,3.10
2011,12,05,02,36,3.10
2011,12,05,02,37,3.10
2011,12,05,02,38,3.00
2011,12,05,02,39,3.00
2011,12,05,02,40,3.00
2011,12,05,02,41,3.00
2011,12,05,02,42,2.90
2011,12,05,02,43,2.90
2011,12,05,02,44,2.90
2011,12,05,02,45,2.90
2011,12,05,02,46,2.90
2011,12,05,02,47,2.90
2011,12,05,02,48,2.90
2011,12,05,02,49,2.90
2011,12,05,02,50,2.90
2011,12,05,02,51,2.90
2011,12,05,02,52,2.90
2011,12,05,02,53,2.90
2011,12,05,02,54,2.90
2011,12,05,02,55,2.90
2011,12,05,02,56,2.90
2011,12,05,02,57,2.90
2011,12,05,02,58,2.90
2011,12,05,02,59,2.90
2011,12,05,03,00,2.90
2011,12,05,03,01,2.90
2011,12,05,03,02,2.90
2011,12,05,03,03,2.90
2011,12,05,03,04,2.90
2011,12,05,03,05,2.90
2011,12,05,03,06,2.90
2011,12,05,03,07,2.90
2011,12,05,03,08,2.90
2011,12,05,03,09,2.90
2011,12,05,03,10,2.90
2011,12,05,03,11,2.90
2011,12,05,03,12,2.90
2011,12,05,03,13,2.90
2011,12,05,03,14,2.90
2011,12,05,03,15,2.90
2011,12,05,03,16,3.00
2011,12,05,03,17,3.00
2011,12,05,03,18,3.00
2011,12,05,03,19,3.00
2011,12,05,03,20,3.00
2011,12,05,03,21,3.00
2011,12,05,03,22,3.00
2011,12,05,03,23,3.00
2011,12,05,03,24,3.00
2011,12,05,03,25,3.00
2011,12,05,03,26,3.00
2011,12,05,03,27,3.00
2011,12,05,03,28,3.00
2011,12,05,03,29,3.00
2011,12,05,03,30,3.00
2011,12,05,03,31,3.00
2011,12,05,03,32,3.00
2011,12,05,03,33,3.00
2011,12,05,03,34,3.00
2011,12,05,03,35,3.00
2011,12,05,03,36,3.00
2011,12,05,03,37,3.00
2011,12,05,03,38,3.00
2011,12,05,03,39,3.00
2011,12,05,03,40,3.00
2011,12,05,03,41,3.00
2011,12,05,03,42,3.00
2011,12,05,03,43,3.00
2011,12,05,03,44,3.00
2011,12,05,03,45,3.00
2011,12,05,03,46,3.00
2011,12,05,03,47,3.10
2011,12,05,03,48,3.10
2011,12,05,03,49,3.10
2011,12,05,03,50,3.20
2011,12,05,03,51,3.20
2011,12,05,03,52,3.30
2011,12,05,03,53,3.30
2011,12,05,03,54,3.30
2011,12,05,03,55,3.30
2011,12,05,03,56,3.30
2011,12,05,03,57,3.30
2011,12,05,03,58,3.30
2011,12,05,03,59,3.30
2011,12,05,04,00,3.30
2011,12,05,04,01,3.30
2011,12,05,04,02,3.30
2011,12,05,04,03,3.30
2011,12,05,04,04,3.30
2011,12,05,04,05,3.30
2011,12,05,04,06,3.40
2011,12,05,04,07,3.40
2011,12,05,04,08,3.50
2011,12,05,04,09,3.50
2011,12,05,04,10,3.50
2011,12,05,04,11,3.60
2011,12,05,04,12,3.60
2011,12,05,04,13,3.60
2011,12,05,04,14,3.70
2011,12,05,04,15,3.70
2011,12,05,04,16,3.70
2011,12,05,04,17,3.70
2011,12,05,04,18,3.70
2011,12,05,04,19,3.70
2011,12,05,04,20,3.80
2011,12,05,04,21,3.80
2011,12,05,04,22,3.80
2011,12,05,04,23,3.80
2011,12,05,04,24,3.80
2011,12,05,04,25,3.80
2011,12,05,04,26,3.80
2011,12,05,04,27,3.80
2011,12,05,04,28,3.80
2011,12,05,04,29,3.80
2011,12,05,04,30,3.80
2011,12,05,04,31,3.80
2011,12,05,04,32,3.80
2011,12,05,04,33,3.80
2011,12,05,04,34,3.80
2011,12,05,04,35,3.80
2011,12,05,04,36,3.80
2011,12,05,04,37,3.80
2011,12,05,04,38,3.80
2011,12,05,04,39,3.80
2011,12,05,04,40,3.80
2011,12,05,04,41,3.80
2011,12,05,04,42,3.80
2011,12,05,04,43,3.80
2011,12,05,04,44,3.80
2011,12,05,04,45,3.80
2011,12,05,04,46,3.80
2011,12,05,04,47,3.80
2011,12,05,04,48,3.80
2011,12,05,04,49,3.80
2011,12,05,04,50,3.80
2011,12,05,04,51,3.80
2011,12,05,04,52,3.80
2011,12,05,04,53,3.80
2011,12,05,04,54,3.80
2011,12,05,04,55,3.80
2011,12,05,04,56,3.80
2011,12,05,04,57,3.80
2011,12,05,04,58,3.80
2011,12,05,04,59,3.80
2011,12,05,05,00,3.70
2011,12,05,05,01,3.70
2011,12,05,05,02,3.70
2011,12,05,05,03,3.70
2011,12,05,05,04,3.70
2011,12,05,05,05,3.70
2011,12,05,05,06,3.70
2011,12,05,05,07,3.70
2011,12,05,05,08,3.70
2011,12,05,05,09,3.70
2011,12,05,05,10,3.70
2011,12,05,05,11,3.70
2011,12,05,05,12,3.70
2011,12,05,05,13,3.70
2011,12,05,05,14,3.70
2011,12,05,05,15,3.70
2011,12,05,05,16,3.70
2011,12,05,05,17,3.70
2011,12,05,05,18,3.70
2011,12,05,05,19,3.70
2011,12,05,05,20,3.70
2011,12,05,05,21,3.60
2011,12,05,05,22,3.60
2011,12,05,05,23,3.60
2011,12,05,05,24,3.60
2011,12,05,05,25,3.60
2011,12,05,05,26,3.60
2011,12,05,05,27,3.60
2011,12,05,05,28,3.60
2011,12,05,05,29,3.60
2011,12,05,05,30,3.60
2011,12,05,05,31,3.60
2011,12,05,05,32,3.60
2011,12,05,05,33,3.60
2011,12,05,05,34,3.60
2011,12,05,05,35,3.60
2011,12,05,05,36,3.60
2011,12,05,05,37,3.60
2011,12,05,05,38,3.50
2011,12,05,05,39,3.50
2011,12,05,05,40,3.50
2011,12,05,05,41,3.50
2011,12,05,05,42,3.40
2011,12,05,05,43,3.40
2011,12,05,05,44,3.40
2011,12,05,05,45,3.40
2011,12,05,05,46,3.40
2011,12,05,05,47,3.40
2011,12,05,05,48,3.40
2011,12,05,05,49,3.40
2011,12,05,05,50,3.40
2011,12,05,05,51,3.40
2011,12,05,05,52,3.40
2011,12,05,05,53,3.40
2011,12,05,05,54,3.40
2011,12,05,05,55,3.40
2011,12,05,05,56,3.40
2011,12,05,05,57,3.40
2011,12,05,05,58,3.40
2011,12,05,05,59,3.40
2011,12,05,06,00,3.40
2011,12,05,06,01,3.40
2011,12,05,06,02,3.40
2011,12,05,06,03,3.40
2011,12,05,06,04,3.40
2011,12,05,06,05,3.40
2011,12,05,06,06,3.40
2011,12,05,06,07,3.40
2011,12,05,06,08,3.40
2011,12,05,06,09,3.40
2011,12,05,06,10,3.40
2011,12,05,06,11,3.40
2011,12,05,06,12,3.40
2011,12,05,06,13,3.40
2011,12,05,06,14,3.40
2011,12,05,06,15,3.40
2011,12,05,06,16,3.40
2011,12,05,06,17,3.40
2011,12,05,06,18,3.40
2011,12,05,06,19,3.40
2011,12,05,06,20,3.40
2011,12,05,06,21,3.40
2011,12,05,06,22,3.40
2011,12,05,06,23,3.40
2011,12,05,06,24,3.30
2011,12,05,06,25,3.30
2011,12,05,06,26,3.30
2011,12,05,06,27,3.30
2011,12,05,06,28,3.30
2011,12,05,06,29,3.30
2011,12,05,06,30,3.30
2011,12,05,06,31,3.30
2011,12,05,06,32,3.30
2011,12,05,06,33,3.30
2011,12,05,06,34,3.30
2011,12,05,06,35,3.30
2011,12,05,06,36,3.30
2011,12,05,06,37,3.30
2011,12,05,06,38,3.30
2011,12,05,06,39,3.30
2011,12,05,06,40,3.30
2011,12,05,06,41,3.30
2011,12,05,06,42,3.30
2011,12,05,06,43,3.30
2011,12,05,06,44,3.30
2011,12,05,06,45,3.30
2011,12,05,06,46,3.30
2011,12,05,06,47,3.30
2011,12,05,06,48,3.30
2011,12,05,06,49,3.30
2011,12,05,06,50,3.30
2011,12,05,06,51,3.30
2011,12,05,06,52,3.30
2011,12,05,06,53,3.30
2011,12,05,06,54,3.30
2011,12,05,06,55,3.30
2011,12,05,06,56,3.30
2011,12,05,06,57,3.30
2011,12,05,06,58,3.30
2011,12,05,06,59,3.30
2011,12,05,07,00,3.30
2011,12,05,07,01,3.30
2011,12,05,07,02,3.30
2011,12,05,07,03,3.30
2011,12,05,07,04,3.30
2011,12,05,07,05,3.30
2011,12,05,07,06,3.30
2011,12,05,07,07,3.20
2011,12,05,07,08,3.20
2011,12,05,07,09,3.20
2011,12,05,07,10,3.20
2011,12,05,07,11,3.20
2011,12,05,07,12,3.20
2011,12,05,07,13,3.20
2011,12,05,07,14,3.20
2011,12,05,07,15,3.20
2011,12,05,07,16,3.20
2011,12,05,07,17,3.20
2011,12,05,07,18,3.20
2011,12,05,07,19,3.20
2011,12,05,07,20,3.20
2011,12,05,07,21,3.20
2011,12,05,07,22,3.20
2011,12,05,07,23,3.30
2011,12,05,07,24,3.30
2011,12,05,07,25,3.30
2011,12,05,07,26,3.30
2011,12,05,07,27,3.30
2011,12,05,07,28,3.30
2011,12,05,07,29,3.30
2011,12,05,07,30,3.30
2011,12,05,07,31,3.30
2011,12,05,07,32,3.30
2011,12,05,07,33,3.30
2011,12,05,07,34,3.30
2011,12,05,07,35,3.30
2011,12,05,07,36,3.30
2011,12,05,07,37,3.30
2011,12,05,07,38,3.30
2011,12,05,07,39,3.30
2011,12,05,07,40,3.30
2011,12,05,07,41,3.30
2011,12,05,07,42,3.30
2011,12,05,07,43,3.30
2011,12,05,07,44,3.30
2011,12,05,07,45,3.30
2011,12,05,07,46,3.30
2011,12,05,07,47,3.30
2011,12,05,07,48,3.30
2011,12,05,07,49,3.30
2011,12,05,07,50,3.30
2011,12,05,07,51,3.30
2011,12,05,07,52,3.30
2011,12,05,07,53,3.30
2011,12,05,07,54,3.30
2011,12,05,07,55,3.30
2011,12,05,07,56,3.30
2011,12,05,07,57,3.30
2011,12,05,07,58,3.30
2011,12,05,07,59,3.30
2011,12,05,08,00,3.30
2011,12,05,08,01,3.30
2011,12,05,08,02,3.30
2011,12,05,08,03,3.30
2011,12,05,08,04,3.30
2011,12,05,08,05,3.30
2011,12,05,08,06,3.30
2011,12,05,08,07,3.30
2011,12,05,08,08,3.30
2011,12,05,08,09,3.30
2011,12,05,08,10,3.30
2011,12,05,08,11,3.30
2011,12,05,08,12,3.30
2011,12,05,08,13,3.30
2011,12,05,08,14,3.40
2011,12,05,08,15,3.40
2011,12,05,08,16,3.40
2011,12,05,08,17,3.40
2011,12,05,08,18,3.40
2011,12,05,08,19,3.40
2011,12,05,08,20,3.40
2011,12,05,08,21,3.40
2011,12,05,08,22,3.40
2011,12,05,08,23,3.40
2011,12,05,08,24,3.40
2011,12,05,08,25,3.40
2011,12,05,08,26,3.50
2011,12,05,08,27,3.50
2011,12,05,08,28,3.50
2011,12,05,08,29,3.50
2011,12,05,08,30,3.50
2011,12,05,08,31,3.50
2011,12,05,08,32,3.50
2011,12,05,08,33,3.50
2011,12,05,08,34,3.50
2011,12,05,08,35,3.50
2011,12,05,08,36,3.50
2011,12,05,08,37,3.50
2011,12,05,08,38,3.50
2011,12,05,08,39,3.50
2011,12,05,08,40,3.50
2011,12,05,08,41,3.50
2011,12,05,08,42,3.50
2011,12,05,08,43,3.60
2011,12,05,08,44,3.60
2011,12,05,08,45,3.60
2011,12,05,08,46,3.60
2011,12,05,08,47,3.60
2011,12,05,08,48,3.60
2011,12,05,08,49,3.60
2011,12,05,08,50,3.60
2011,12,05,08,51,3.60
2011,12,05,08,52,3.60
2011,12,05,08,53,3.60
2011,12,05,08,54,3.60
2011,12,05,08,55,3.60
2011,12,05,08,56,3.60
2011,12,05,08,57,3.70
2011,12,05,08,58,3.70
2011,12,05,08,59,3.60
2011,12,05,09,00,3.60
2011,12,05,09,01,3.70
2011,12,05,09,02,3.70
2011,12,05,09,03,3.70
2011,12,05,09,04,3.70
2011,12,05,09,05,3.70
2011,12,05,09,06,3.70
2011,12,05,09,07,3.70
2011,12,05,09,08,3.70
2011,12,05,09,09,3.70
2011,12,05,09,10,3.70
2011,12,05,09,11,3.70
2011,12,05,09,12,3.70
2011,12,05,09,13,3.70
2011,12,05,09,14,3.70
2011,12,05,09,15,3.70
2011,12,05,09,16,3.70
2011,12,05,09,17,3.70
2011,12,05,09,18,3.70
2011,12,05,09,19,3.70
2011,12,05,09,20,3.70
2011,12,05,09,21,3.70
2011,12,05,09,22,3.70
2011,12,05,09,23,3.70
2011,12,05,09,24,3.70
2011,12,05,09,25,3.70
2011,12,05,09,26,3.70
2011,12,05,09,27,3.70
2011,12,05,09,28,3.70
2011,12,05,09,29,3.70
2011,12,05,09,30,3.70
2011,12,05,09,31,3.70
2011,12,05,09,32,3.80
2011,12,05,09,33,3.80
2011,12,05,09,34,3.80
2011,12,05,09,35,3.80
2011,12,05,09,36,3.80
2011,12,05,09,37,3.80
2011,12,05,09,38,3.80
2011,12,05,09,39,3.80
2011,12,05,09,40,3.80
2011,12,05,09,41,3.80
2011,12,05,09,42,3.80
2011,12,05,09,43,3.80
2011,12,05,09,44,3.80
2011,12,05,09,45,3.80
2011,12,05,09,46,3.80
2011,12,05,09,47,3.70
2011,12,05,09,48,3.70
2011,12,05,09,49,3.70
2011,12,05,09,50,3.70
2011,12,05,09,51,3.70
2011,12,05,09,52,3.70
2011,12,05,09,53,3.70
2011,12,05,09,54,3.70
2011,12,05,09,55,3.70
2011,12,05,09,56,3.70
2011,12,05,09,57,3.70
2011,12,05,09,58,3.80
2011,12,05,09,59,3.80
2011,12,05,10,00,3.80
2011,12,05,10,01,3.80
2011,12,05,10,02,3.70
2011,12,05,10,03,3.70
2011,12,05,10,04,3.70
2011,12,05,10,05,3.70
2011,12,05,10,06,3.80
2011,12,05,10,07,3.80
2011,12,05,10,08,3.80
2011,12,05,10,09,3.80
2011,12,05,10,10,3.80
2011,12,05,10,11,3.80
2011,12,05,10,12,3.80
2011,12,05,10,13,3.80
2011,12,05,10,14,3.80
2011,12,05,10,15,3.80
2011,12,05,10,16,3.90
2011,12,05,10,17,3.90
2011,12,05,10,18,3.90
2011,12,05,10,19,3.90
2011,12,05,10,20,3.80
2011,12,05,10,21,3.80
2011,12,05,10,22,3.80
2011,12,05,10,23,3.90
2011,12,05,10,24,3.90
2011,12,05,10,25,3.90
2011,12,05,10,26,3.90
2011,12,05,10,27,3.90
2011,12,05,10,28,3.90
2011,12,05,10,29,3.90
2011,12,05,10,30,3.90
2011,12,05,10,31,3.90
2011,12,05,10,32,3.90
2011,12,05,10,33,3.90
2011,12,05,10,34,4.00
2011,12,05,10,35,4.00
2011,12,05,10,36,4.00
2011,12,05,10,37,4.00
2011,12,05,10,38,4.00
2011,12,05,10,39,4.10
2011,12,05,10,40,4.10
2011,12,05,10,41,4.10
2011,12,05,10,42,4.10
2011,12,05,10,43,4.10
2011,12,05,10,44,4.10
2011,12,05,10,45,4.10
2011,12,05,10,46,4.20
2011,12,05,10,47,4.20
2011,12,05,10,48,4.20
2011,12,05,10,49,4.20
2011,12,05,10,50,4.20
2011,12,05,10,51,4.20
2011,12,05,10,52,4.20
2011,12,05,10,53,4.30
2011,12,05,10,54,4.30
2011,12,05,10,55,4.30
2011,12,05,10,56,4.30
2011,12,05,10,57,4.30
2011,12,05,10,58,4.30
2011,12,05,10,59,4.30
2011,12,05,11,00,4.30
2011,12,05,11,01,4.30
2011,12,05,11,02,4.30
2011,12,05,11,03,4.30
2011,12,05,11,04,4.30
2011,12,05,11,05,4.30
2011,12,05,11,06,4.30
2011,12,05,11,07,4.30
2011,12,05,11,08,4.30
2011,12,05,11,09,4.40
2011,12,05,11,10,4.40
2011,12,05,11,11,4.40
2011,12,05,11,12,4.40
2011,12,05,11,13,4.40
2011,12,05,11,14,4.40
2011,12,05,11,15,4.40
2011,12,05,11,16,4.40
2011,12,05,11,17,4.40
2011,12,05,11,18,4.40
2011,12,05,11,19,4.40
2011,12,05,11,20,4.40
2011,12,05,11,21,4.30
2011,12,05,11,22,4.30
2011,12,05,11,23,4.30
2011,12,05,11,24,4.30
2011,12,05,11,25,4.30
2011,12,05,11,26,4.30
2011,12,05,11,27,4.30
2011,12,05,11,28,4.30
2011,12,05,11,29,4.40
2011,12,05,11,30,4.40
2011,12,05,11,31,4.40
2011,12,05,11,32,4.40
2011,12,05,11,33,4.40
2011,12,05,11,34,4.40
2011,12,05,11,35,4.40
2011,12,05,11,36,4.40
2011,12,05,11,37,4.40
2011,12,05,11,38,4.40
2011,12,05,11,39,4.40
2011,12,05,11,40,4.40
2011,12,05,11,41,4.40
2011,12,05,11,42,4.40
2011,12,05,11,43,4.40
2011,12,05,11,44,4.40
2011,12,05,11,45,4.40
2011,12,05,11,46,4.40
2011,12,05,11,47,4.40
2011,12,05,11,48,4.40
2011,12,05,11,49,4.40
2011,12,05,11,50,4.40
2011,12,05,11,51,4.40
2011,12,05,11,52,4.40
2011,12,05,11,53,4.40
2011,12,05,11,54,4.40
2011,12,05,11,55,4.40
2011,12,05,11,56,4.40
2011,12,05,11,57,4.40
2011,12,05,11,58,4.50
2011,12,05,11,59,4.50
2011,12,05,12,00,4.50
2011,12,05,12,01,4.50
2011,12,05,12,02,4.50
2011,12,05,12,03,4.50
2011,12,05,12,04,4.50
2011,12,05,12,05,4.50
2011,12,05,12,06,4.50
2011,12,05,12,07,4.50
2011,12,05,12,08,4.50
2011,12,05,12,09,4.50
2011,12,05,12,10,4.50
2011,12,05,12,11,4.50
2011,12,05,12,12,4.50
2011,12,05,12,13,4.50
2011,12,05,12,14,4.50
2011,12,05,12,15,4.50
2011,12,05,12,16,4.50
2011,12,05,12,17,4.50
2011,12,05,12,18,4.50
2011,12,05,12,19,4.50
2011,12,05,12,20,4.50
2011,12,05,12,21,4.50
2011,12,05,12,22,4.50
2011,12,05,12,23,4.50
2011,12,05,12,24,4.50
2011,12,05,12,25,4.40
2011,12,05,12,26,4.50
2011,12,05,12,27,4.40
2011,12,05,12,28,4.40
2011,12,05,12,29,4.40
2011,12,05,12,30,4.40
2011,12,05,12,31,4.40
2011,12,05,12,32,4.40
2011,12,05,12,33,4.40
2011,12,05,12,34,4.40
2011,12,05,12,35,4.40
2011,12,05,12,36,4.40
2011,12,05,12,37,4.40
2011,12,05,12,38,4.40
2011,12,05,12,39,4.40
2011,12,05,12,40,4.40
2011,12,05,12,41,4.40
2011,12,05,12,42,4.40
2011,12,05,12,43,4.40
2011,12,05,12,44,4.40
2011,12,05,12,45,4.40
2011,12,05,12,46,4.40
2011,12,05,12,47,4.40
2011,12,05,12,48,4.40
2011,12,05,12,49,4.40
2011,12,05,12,50,4.40
2011,12,05,12,51,4.40
2011,12,05,12,52,4.40
2011,12,05,12,53,4.40
2011,12,05,12,54,4.40
2011,12,05,12,55,4.40
2011,12,05,12,56,4.40
2011,12,05,12,57,4.40
2011,12,05,12,58,4.40
2011,12,05,12,59,4.40
2011,12,05,13,00,4.40
2011,12,05,13,01,4.40
2011,12,05,13,02,4.40
2011,12,05,13,03,4.40
2011,12,05,13,04,4.40
2011,12,05,13,05,4.30
2011,12,05,13,06,4.30
2011,12,05,13,07,4.30
2011,12,05,13,08,4.30
2011,12,05,13,09,4.40
2011,12,05,13,10,4.40
2011,12,05,13,11,4.30
2011,12,05,13,12,4.30
2011,12,05,13,13,4.40
2011,12,05,13,14,4.40
2011,12,05,13,15,4.40
2011,12,05,13,16,4.40
2011,12,05,13,17,4.40
2011,12,05,13,18,4.40
2011,12,05,13,19,4.40
2011,12,05,13,20,4.40
2011,12,05,13,21,4.40
2011,12,05,13,22,4.40
2011,12,05,13,23,4.40
2011,12,05,13,24,4.40
2011,12,05,13,25,4.40
2011,12,05,13,26,4.40
2011,12,05,13,27,4.40
2011,12,05,13,28,4.40
2011,12,05,13,29,4.40
2011,12,05,13,30,4.40
2011,12,05,13,31,4.40
2011,12,05,13,32,4.40
2011,12,05,13,33,4.40
2011,12,05,13,34,4.40
2011,12,05,13,35,4.40
2011,12,05,13,36,4.40
2011,12,05,13,37,4.40
2011,12,05,13,38,4.40
2011,12,05,13,39,4.40
2011,12,05,13,40,4.40
2011,12,05,13,41,4.40
2011,12,05,13,42,4.40
2011,12,05,13,43,4.30
2011,12,05,13,44,4.30
2011,12,05,13,45,4.30
2011,12,05,13,46,4.30
2011,12,05,13,47,4.30
2011,12,05,13,48,4.30
2011,12,05,13,49,4.30
2011,12,05,13,50,4.30
2011,12,05,13,51,4.30
2011,12,05,13,52,4.30
2011,12,05,13,53,4.30
2011,12,05,13,54,4.40
2011,12,05,13,55,4.40
2011,12,05,13,56,4.40
2011,12,05,13,57,4.40
2011,12,05,13,58,4.40
2011,12,05,13,59,4.40
2011,12,05,14,00,4.40
2011,12,05,14,01,4.40
2011,12,05,14,02,4.40
2011,12,05,14,03,4.40
2011,12,05,14,04,4.40
2011,12,05,14,05,4.40
2011,12,05,14,06,4.40
2011,12,05,14,07,4.40
2011,12,05,14,08,4.40
2011,12,05,14,09,4.50
2011,12,05,14,10,4.50
2011,12,05,14,11,4.50
2011,12,05,14,12,4.50
2011,12,05,14,13,4.50
2011,12,05,14,14,4.50
2011,12,05,14,15,4.50
2011,12,05,14,16,4.40
2011,12,05,14,17,4.40
2011,12,05,14,18,4.40
2011,12,05,14,19,4.40
2011,12,05,14,20,4.40
2011,12,05,14,21,4.40
2011,12,05,14,22,4.40
2011,12,05,14,23,4.40
2011,12,05,14,24,4.40
2011,12,05,14,25,4.40
2011,12,05,14,26,4.40
2011,12,05,14,27,4.40
2011,12,05,14,28,4.40
2011,12,05,14,29,4.40
2011,12,05,14,30,4.40
2011,12,05,14,31,4.40
2011,12,05,14,32,4.40
2011,12,05,14,33,4.50
2011,12,05,14,34,4.50
2011,12,05,14,35,4.50
2011,12,05,14,36,4.50
2011,12,05,14,37,4.50
2011,12,05,14,38,4.50
2011,12,05,14,39,4.50
2011,12,05,14,40,4.60
2011,12,05,14,41,4.60
2011,12,05,14,42,4.60
2011,12,05,14,43,4.60
2011,12,05,14,44,4.60
2011,12,05,14,45,4.60
2011,12,05,14,46,4.50
2011,12,05,14,47,4.50
2011,12,05,14,48,4.60
2011,12,05,14,49,4.60
2011,12,05,14,50,4.60
2011,12,05,14,51,4.60
2011,12,05,14,52,4.50
2011,12,05,14,53,4.50
2011,12,05,14,54,4.50
2011,12,05,14,55,4.50
2011,12,05,14,56,4.50
2011,12,05,14,57,4.40
2011,12,05,14,58,4.40
2011,12,05,14,59,4.40
2011,12,05,15,00,4.50
2011,12,05,15,01,4.40
2011,12,05,15,02,4.40
2011,12,05,15,03,4.40
2011,12,05,15,04,4.40
2011,12,05,15,05,4.40
2011,12,05,15,06,4.40
2011,12,05,15,07,4.40
2011,12,05,15,08,4.40
2011,12,05,15,09,4.40
2011,12,05,15,10,4.40
2011,12,05,15,11,4.40
2011,12,05,15,12,4.40
2011,12,05,15,13,4.40
2011,12,05,15,14,4.40
2011,12,05,15,15,4.40
2011,12,05,15,16,4.40
2011,12,05,15,17,4.40
2011,12,05,15,18,4.40
2011,12,05,15,19,4.40
2011,12,05,15,20,4.40
2011,12,05,15,21,4.40
2011,12,05,15,22,4.40
2011,12,05,15,23,4.40
2011,12,05,15,24,4.40
2011,12,05,15,25,4.40
2011,12,05,15,26,4.40
2011,12,05,15,27,4.40
2011,12,05,15,28,4.40
2011,12,05,15,29,4.40
2011,12,05,15,30,4.40
2011,12,05,15,31,4.40
2011,12,05,15,32,4.40
2011,12,05,15,33,4.40
2011,12,05,15,34,4.40
2011,12,05,15,35,4.40
2011,12,05,15,36,4.40
2011,12,05,15,37,4.40
2011,12,05,15,38,4.40
2011,12,05,15,39,4.40
2011,12,05,15,40,4.40
2011,12,05,15,41,4.40
2011,12,05,15,42,4.40
2011,12,05,15,43,4.40
2011,12,05,15,44,4.40
2011,12,05,15,45,4.40
2011,12,05,15,46,4.40
2011,12,05,15,47,4.40
2011,12,05,15,48,4.40
2011,12,05,15,49,4.40
2011,12,05,15,50,4.40
2011,12,05,15,51,4.40
2011,12,05,15,52,4.40
2011,12,05,15,53,4.40
2011,12,05,15,54,4.40
2011,12,05,15,55,4.40
2011,12,05,15,56,4.40
2011,12,05,15,57,4.40
2011,12,05,15,58,4.40
2011,12,05,15,59,4.40
2011,12,05,16,00,4.40
2011,12,05,16,01,4.40
2011,12,05,16,02,4.40
2011,12,05,16,03,4.40
2011,12,05,16,04,4.40
2011,12,05,16,05,4.40
2011,12,05,16,06,4.40
2011,12,05,16,07,4.40
2011,12,05,16,08,4.40
2011,12,05,16,09,4.40
2011,12,05,16,10,4.40
2011,12,05,16,11,4.40
2011,12,05,16,12,4.40
2011,12,05,16,13,4.40
2011,12,05,16,14,4.40
2011,12,05,16,15,4.40
2011,12,05,16,16,4.40
2011,12,05,16,17,4.40
2011,12,05,16,18,4.40
2011,12,05,16,19,4.40
2011,12,05,16,20,4.40
2011,12,05,16,21,4.40
2011,12,05,16,22,4.40
2011,12,05,16,23,4.40
2011,12,05,16,24,4.40
2011,12,05,16,25,4.40
2011,12,05,16,26,4.40
2011,12,05,16,27,4.40
2011,12,05,16,28,4.40
2011,12,05,16,29,4.40
2011,12,05,16,30,4.40
2011,12,05,16,31,4.40
2011,12,05,16,32,4.40
2011,12,05,16,33,4.40
2011,12,05,16,34,4.40
2011,12,05,16,35,4.40
2011,12,05,16,36,4.40
2011,12,05,16,37,4.40
2011,12,05,16,38,4.40
2011,12,05,16,39,4.40
2011,12,05,16,40,4.40
2011,12,05,16,41,4.40
2011,12,05,16,42,4.40
2011,12,05,16,43,4.40
2011,12,05,16,44,4.40
2011,12,05,16,45,4.40
2011,12,05,16,46,4.40
2011,12,05,16,47,4.40
2011,12,05,16,48,4.40
2011,12,05,16,49,4.40
2011,12,05,16,50,4.40
2011,12,05,16,51,4.40
2011,12,05,16,52,4.40
2011,12,05,16,53,4.40
2011,12,05,16,54,4.40
2011,12,05,16,55,4.40
2011,12,05,16,56,4.40
2011,12,05,16,57,4.40
2011,12,05,16,58,4.40
2011,12,05,16,59,4.40
2011,12,05,17,00,4.40
2011,12,05,17,01,4.40
2011,12,05,17,02,4.40
2011,12,05,17,03,4.40
2011,12,05,17,04,4.40
2011,12,05,17,05,4.40
2011,12,05,17,06,4.40
2011,12,05,17,07,4.40
2011,12,05,17,08,4.40
2011,12,05,17,09,4.40
2011,12,05,17,10,4.40
2011,12,05,17,11,4.40
2011,12,05,17,12,4.40
2011,12,05,17,13,4.40
2011,12,05,17,14,4.40
2011,12,05,17,15,4.40
2011,12,05,17,16,4.40
2011,12,05,17,17,4.40
2011,12,05,17,18,4.40
2011,12,05,17,19,4.40
2011,12,05,17,20,4.40
2011,12,05,17,21,4.40
2011,12,05,17,22,4.40
2011,12,05,17,23,4.40
2011,12,05,17,24,4.40
2011,12,05,17,25,4.40
2011,12,05,17,26,4.40
2011,12,05,17,27,4.40
2011,12,05,17,28,4.40
2011,12,05,17,29,4.40
2011,12,05,17,30,4.40
2011,12,05,17,31,4.40
2011,12,05,17,32,4.40
2011,12,05,17,33,4.40
2011,12,05,17,34,4.40
2011,12,05,17,35,4.40
2011,12,05,17,36,4.40
2011,12,05,17,37,4.40
2011,12,05,17,38,4.40
2011,12,05,17,39,4.40
2011,12,05,17,40,4.40
2011,12,05,17,41,4.40
2011,12,05,17,42,4.40
2011,12,05,17,43,4.40
2011,12,05,17,44,4.50
2011,12,05,17,45,4.50
2011,12,05,17,46,4.50
2011,12,05,17,47,4.50
2011,12,05,17,48,4.50
2011,12,05,17,49,4.50
2011,12,05,17,50,4.50
2011,12,05,17,51,4.50
2011,12,05,17,52,4.50
2011,12,05,17,53,4.50
2011,12,05,17,54,4.50
2011,12,05,17,55,4.50
2011,12,05,17,56,4.50
2011,12,05,17,57,4.50
2011,12,05,17,58,4.50
2011,12,05,17,59,4.50
2011,12,05,18,00,4.50
2011,12,05,18,01,4.50
2011,12,05,18,02,4.50
2011,12,05,18,03,4.50
2011,12,05,18,04,4.50
2011,12,05,18,05,4.50
2011,12,05,18,06,4.50